Mekoryuk, AK

5:33 AM AKST on January 18, 2017 (GMT -0900)
Mekoryuk

Weather History for PAMY - April, 2013

Change the Weather History Date:

Tuesday, April 23, 2013

  Actual Average Record
Temperature  
Mean Temperature 16 °F -  
Max Temperature 26 °F 31 °F 42 °F (2014)
Min Temperature 6 °F 24 °F -12 °F (1984)
Degree Days  
Heating Degree Days 49    
Moisture  
Dew Point 18 °F    
Average Humidity 88    
Maximum Humidity 100    
Minimum Humidity 73    
Precipitation  
Precipitation 0.00 in - - ()
Sea Level Pressure  
Sea Level Pressure 30.47 in    
Wind  
Wind Speed 4 mph (NNW)    
Max Wind Speed 9 mph    
Max Gust Speed -    
Visibility 5 miles    
Events      
Averages and records for this station are not official NWS values.
T = Trace of Precipitation, MM = Missing Value Source: NWS Daily Summary

Daily Weather History Graph

Daily Weather History Graph

Search for Another Location

Airport or City:

Trip Planner

Search our weather history database for the weather conditions in past years. The results will help you decide how hot, cold, wet, or windy it might be!

Date:

Astronomy

Apr. 23, 2013 Rise Set
Actual Time 7:22 AM AKDT 10:46 PM AKDT
Civil Twilight 6:31 AM AKDT 11:36 PM AKDT
Nautical Twilight 5:20 AM AKDT 12:50 AM AKDT
Astronomical Twilight 3:35 AM AKDT 2:30 AM AKDT
Moon 8:32 PM AKDT (4/23) 6:31 AM AKDT (4/23)
Length of Visible Light 17h 04m
Length of Day
15h 23m
Waxing Gibbous, 95% of the Moon is Illuminated
Apr 23
Waxing Gibbous
Apr 25
Full
May 2
Last Quarter
May 9
New
May 17
First Quarter

Hourly Weather History & Observations

Time (AKDT) Temp. Windchill Dew Point Humidity Pressure Visibility Wind Dir Wind Speed Gust Speed Precip Events Conditions
12:16 AM 12.2 °F -0.2 °F 10.4 °F 92% 30.47 in 10.0 mi WNW 9.2 mph - N/A   Clear
12:36 AM 14.0 °F 3.9 °F 10.4 °F 86% 30.47 in 10.0 mi West 6.9 mph - N/A   Clear
12:56 AM 14.0 °F 6.5 °F 10.4 °F 86% 30.47 in 10.0 mi WNW 4.6 mph - N/A   Clear
1:16 AM 15.8 °F - 12.2 °F 86% 30.46 in 10.0 mi Calm Calm - N/A   Clear
1:36 AM 8.6 °F - 1.4 °F 73% 30.46 in 10.0 mi Calm Calm - N/A   Clear
1:56 AM 6.8 °F - 1.4 °F 79% 30.46 in 9.0 mi Calm Calm - N/A   Clear
2:16 AM 8.6 °F -1.3 °F 5.0 °F 85% 30.46 in 10.0 mi West 5.8 mph - N/A   Clear
2:36 AM 10.4 °F -1.5 °F 8.6 °F 92% 30.47 in 1.2 mi West 8.1 mph - N/A   Scattered Clouds
2:56 AM 12.2 °F 1.7 °F 8.6 °F 85% 30.48 in 0.2 mi West 6.9 mph - N/A   Overcast
3:16 AM 10.4 °F -1.5 °F 8.6 °F 92% 30.47 in 0.2 mi NW 8.1 mph - N/A   Overcast
3:36 AM 14.0 °F 2.0 °F 10.4 °F 86% 30.47 in 5.0 mi NW 9.2 mph - N/A   Clear
3:56 AM 14.0 °F - 10.4 °F 86% 30.47 in 0.5 mi Calm Calm - N/A   Unknown
4:16 AM 12.2 °F 4.3 °F 6.8 °F 79% 30.46 in 0.5 mi West 4.6 mph - N/A   Mostly Cloudy
4:36 AM 12.2 °F 4.3 °F 10.4 °F 92% 30.46 in 0.2 mi WNW 4.6 mph - N/A   Overcast
4:56 AM 8.6 °F -1.3 °F 3.2 °F 79% 30.46 in 0.2 mi West 5.8 mph - N/A   Overcast
5:16 AM 10.4 °F -0.4 °F 6.8 °F 85% 30.47 in 0.2 mi WNW 6.9 mph - N/A   Overcast
5:36 AM 15.8 °F 6.1 °F 10.4 °F 79% 30.46 in 0.2 mi WNW 6.9 mph - N/A   Overcast
5:56 AM 15.8 °F 6.1 °F 12.2 °F 86% 30.47 in 0.5 mi WNW 6.9 mph - N/A   Overcast
6:16 AM 15.8 °F 8.6 °F 12.2 °F 86% 30.47 in 0.2 mi WNW 4.6 mph - N/A   Overcast
6:36 AM 15.8 °F 5.1 °F 14.0 °F 93% 30.48 in 0.2 mi WNW 8.1 mph - N/A   Overcast
6:56 AM 17.6 °F 10.7 °F 15.8 °F 93% 30.48 in 0.2 mi WNW 4.6 mph - N/A   Overcast
7:16 AM 19.4 °F 11.5 °F 17.6 °F 93% 30.48 in 0.2 mi North 5.8 mph - N/A   Overcast
7:36 AM 19.4 °F 10.4 °F 17.6 °F 93% 30.49 in 0.2 mi North 6.9 mph - N/A   Overcast
7:56 AM 19.4 °F 14.3 °F 17.6 °F 93% 30.48 in 0.2 mi North 3.5 mph - N/A   Overcast
8:16 AM 19.4 °F 14.3 °F 17.6 °F 93% 30.48 in 0.2 mi North 3.5 mph - N/A   Overcast
8:36 AM 19.4 °F - 17.6 °F 93% 30.47 in 0.2 mi Calm Calm - N/A   Overcast
8:56 AM 21.2 °F 14.9 °F 17.6 °F 86% 30.48 in 0.8 mi North 4.6 mph - N/A   Overcast
9:16 AM 21.2 °F 14.9 °F 19.4 °F 93% 30.47 in 1.8 mi NE 4.6 mph - N/A   Overcast
9:36 AM 21.2 °F - 19.4 °F 93% 30.48 in 0.5 mi Calm Calm - N/A   Overcast
9:56 AM 21.2 °F - 19.4 °F 93% 30.48 in 2.0 mi Calm Calm - N/A   Overcast
10:16 AM 21.2 °F - 19.4 °F 93% 30.47 in 2.5 mi Calm Calm - N/A   Overcast
10:36 AM 23.0 °F - 21.2 °F 93% 30.49 in 2.0 mi Calm Calm - N/A   Overcast
10:56 AM 24.8 °F 19.1 °F 21.2 °F 86% 30.48 in 1.0 mi North 4.6 mph - N/A   Overcast
11:16 AM 24.8 °F - 21.2 °F 86% 30.49 in 10.0 mi Calm Calm - N/A   Overcast
11:36 AM 24.8 °F 20.5 °F 23.0 °F 93% 30.48 in 4.0 mi NNE 3.5 mph - N/A   Overcast
11:56 AM 26.6 °F 20.0 °F 24.8 °F 93% 30.48 in 7.0 mi North 5.8 mph - N/A   Overcast
12:16 PM 24.8 °F 20.5 °F 23.0 °F 93% 30.49 in 5.0 mi North 3.5 mph - N/A   Overcast
12:36 PM 26.6 °F 21.2 °F 24.8 °F 93% 30.48 in 4.0 mi NNE 4.6 mph - N/A   Overcast
12:56 PM 24.8 °F 20.5 °F 21.2 °F 86% 30.47 in 0.8 mi NNE 3.5 mph - N/A   Overcast
1:16 PM 24.8 °F - 24.8 °F 100% 30.48 in 10.0 mi Calm Calm - N/A   Overcast
1:36 PM 24.8 °F - 23.0 °F 93% 30.48 in 10.0 mi Calm Calm - N/A   Overcast
1:56 PM 24.8 °F 20.5 °F 23.0 °F 93% 30.47 in 10.0 mi NNE 3.5 mph - N/A   Overcast
2:16 PM 24.8 °F - 21.2 °F 86% 30.47 in 10.0 mi Calm Calm - N/A   Overcast
2:36 PM 24.8 °F 20.5 °F 23.0 °F 93% 30.48 in 10.0 mi North 3.5 mph - N/A   Overcast
2:56 PM 24.8 °F - 21.2 °F 86% 30.47 in 7.0 mi Calm Calm - N/A   Overcast
3:16 PM 24.8 °F - 21.2 °F 86% 30.47 in 10.0 mi Calm Calm - N/A   Overcast
3:36 PM 24.8 °F - 21.2 °F 86% 30.47 in 10.0 mi Calm Calm - N/A   Overcast
3:56 PM 24.8 °F - 21.2 °F 86% 30.47 in 10.0 mi Calm Calm - N/A   Overcast
4:16 PM 24.8 °F - 21.2 °F 86% 30.47 in 10.0 mi Calm Calm - N/A   Overcast
4:36 PM 26.6 °F 20.0 °F 21.2 °F 80% 30.47 in 10.0 mi North 5.8 mph - N/A   Overcast
4:56 PM 26.6 °F 20.0 °F 23.0 °F 86% 30.47 in 10.0 mi NNE 5.8 mph - N/A   Overcast
5:16 PM 24.8 °F - 21.2 °F 86% 30.46 in 10.0 mi Calm Calm - N/A   Overcast
5:36 PM 24.8 °F 20.5 °F 23.0 °F 93% 30.47 in 10.0 mi North 3.5 mph - N/A   Overcast
5:56 PM 26.6 °F 21.2 °F 23.0 °F 86% 30.47 in 5.0 mi North 4.6 mph - N/A   Overcast
6:16 PM 26.6 °F 20.0 °F 24.8 °F 93% 30.47 in 7.0 mi NNE 5.8 mph - N/A   Overcast
6:36 PM 26.6 °F 21.2 °F 23.0 °F 86% 30.46 in 10.0 mi ENE 4.6 mph - N/A   Overcast
6:56 PM 26.6 °F - 23.0 °F 86% 30.46 in 10.0 mi Calm Calm - N/A   Overcast
7:16 PM 26.6 °F 22.6 °F 23.0 °F 86% 30.46 in 10.0 mi NNE 3.5 mph - N/A   Overcast
7:36 PM 26.6 °F 19.1 °F 24.8 °F 93% 30.46 in 3.0 mi NNE 6.9 mph - N/A   Overcast
7:56 PM 26.6 °F 22.6 °F 24.8 °F 93% 30.46 in 8.0 mi NNE 3.5 mph - N/A   Overcast
8:16 PM 26.6 °F 21.2 °F 24.8 °F 93% 30.46 in 9.0 mi North 4.6 mph - N/A   Overcast
8:36 PM 26.6 °F - 21.2 °F 80% 30.46 in 10.0 mi Calm Calm - N/A   Overcast
8:56 PM 26.6 °F - 23.0 °F 86% 30.47 in 10.0 mi Calm Calm - N/A   Overcast
9:16 PM 26.6 °F 19.1 °F 23.0 °F 86% 30.47 in 10.0 mi North 6.9 mph - N/A   Overcast
9:36 PM 26.6 °F 20.0 °F 23.0 °F 86% 30.47 in 10.0 mi North 5.8 mph - N/A   Overcast
10:16 PM 26.6 °F 21.2 °F 23.0 °F 86% 30.47 in 5.0 mi North 4.6 mph - N/A   Overcast
10:36 PM 26.6 °F - 24.8 °F 93% 30.47 in 1.8 mi Calm Calm - N/A   Overcast
10:56 PM 26.6 °F 21.2 °F 23.0 °F 86% 30.48 in 4.0 mi North 4.6 mph - N/A   Overcast
11:16 PM 26.6 °F 21.2 °F 23.0 °F 86% 30.48 in 2.0 mi NNE 4.6 mph - N/A   Overcast
11:36 PM 24.8 °F - 21.2 °F 86% 30.48 in 8.0 mi Calm Calm - N/A   Overcast
11:56 PM 24.8 °F - 21.2 °F 86% 30.47 in 5.0 mi Calm Calm - N/A   Overcast